Location: Unspecified
(40.7945°N, 0.0000°E)
Time: 15:12:39
(UTC+00:00)

Courier 1B Rocket - Visible Passes

Search period start: 25 January 2021 00:00
Search period end: 04 February 2021 00:00
Orbit: 920 x 1202 km, 28.2° (Epoch: 25 January)

Date Brightness Start Highest point End Pass type
(mag) Time Alt. Az. Time Alt. Az. Time Alt. Az.
25 Jan 7.4 04:46:27 10° S 04:48:15 11° SSE 04:50:06 10° SE visible
25 Jan 7.1 06:35:24 10° SW 06:40:38 24° SSE 06:46:08 10° ESE visible
26 Jan 7.1 05:35:17 10° SSW 05:39:50 20° SSE 05:44:36 10° ESE visible
27 Jan 7.1 04:36:29 12° S 04:39:07 15° SSE 04:42:44 10° SE visible
27 Jan 6.8 06:26:12 10° SW 06:31:34 27° S 06:37:15 10° ESE visible
28 Jan 7.5 03:39:32 10° SE 03:39:32 10° SE 03:39:43 10° SE visible
28 Jan 6.8 05:25:55 10° SW 05:30:46 23° SSE 05:35:56 10° ESE visible
29 Jan 6.8 04:28:53 18° S 04:30:02 19° SSE 04:34:28 10° ESE visible
29 Jan 6.6 06:17:11 10° SW 06:22:34 27° S 06:28:14 10° ESE visible
30 Jan 7.4 03:31:47 12° SE 03:31:47 12° SE 03:32:41 10° SE visible
30 Jan 6.5 05:18:09 16° SW 05:21:45 25° S 05:27:05 10° ESE visible
31 Jan 6.5 04:21:01 22° SSE 04:21:01 22° SSE 04:25:52 10° ESE visible
31 Jan 6.5 06:08:19 10° WSW 06:13:34 27° S 06:19:05 10° SE visible
01 Feb 7.4 03:23:51 12° SE 03:23:51 12° SE 03:24:30 10° ESE visible
01 Feb 6.4 05:10:13 20° SSW 05:12:47 26° S 05:18:07 10° ESE visible
02 Feb 6.5 04:13:01 24° SSE 04:13:01 24° SSE 04:17:05 10° ESE visible
02 Feb 6.5 05:59:35 10° WSW 06:04:35 25° S 06:09:48 10° SE visible
03 Feb 7.5 03:15:47 11° ESE 03:15:47 11° ESE 03:15:58 10° ESE visible
03 Feb 6.2 05:02:09 23° SSW 05:03:49 26° S 05:09:02 10° SE visible
